[Iaude] MPEC A21: 2016 DP [a=1.02,e=0.48,i=13.3,H=20.2,PHA]

mpec at si.edu mpec at si.edu
Thu Jan 5 09:50:14 EST 2017


M.P.E.C. 2017-A21                                Issued 2017 Jan. 5, 14:46 UT
 
     The Minor Planet Electronic Circulars contain information on unusual
         minor planets and routine data on comets.  They are published
    on behalf of Division F of the International Astronomical Union by the
          Minor Planet Center, Smithsonian Astrophysical Observatory,
                          Cambridge, MA 02138, U.S.A.

             Prepared using the Tamkin Foundation Computer Network

                              MPC at CFA.HARVARD.EDU
            URL http://www.minorplanetcenter.net/    ISSN 1523-6714


                                    2016 DP
 
                           Revision to MPEC 2016-D41
 
Additional Observations:
     K16D00P  C2016 12 24.65989612 14 46.322+19 46 14.45         22.1 GUEA021T12
     K16D00P  C2017 01 04.62366212 32 03.456+20 50 25.97         22.4 GUEA021T12
     K16D00P  C2017 01 04.63459312 32 04.394+20 50 31.18         22.5 GUEA021T12
 
Observer details:
T12 Mauna Kea-UH/Tholen NEO Follow-Up (2.24-m).  Observers D. J. Tholen,
    D. Fohring.  Measurer D. J. Tholen.  2.24-m University of Hawaii reflector.
 
First and last observations above in comparison with prediction:
Residuals in seconds of arc, reference and Delta-T
161224 T12 15.1+ 13.1-    170104 T12 18.9+ 16.4-    MPO380413   -0.011 day
 
Orbital elements:
2016 DP                                             PHA, Earth MOID = 0.0316 AU
Epoch 2017 Feb. 16.0 TT = JDT 2457800.5                 MPC
M 244.14011              (2000.0)            P               Q
n   0.95308830     Peri.  254.01730     +0.60060122     +0.77727614
a   1.0226192      Node    54.41877     -0.61674033     +0.59953779
e   0.4771115      Incl.   13.32214     -0.50883155     +0.19077799
P   1.03           H   20.2           G   0.15           U   3
Residuals in seconds of arc
160218 G96  0.2+  0.1+    160313 703  0.4-  0.1+    160321 G45  0.1-  0.2+
160218 G96  0.1+  0.0     160313 703  0.1-  0.5-    160321 H21  0.2+  0.2+
160218 G96  0.2+  0.0     160313 703  0.1-  0.3-    160321 H21  0.2+  0.1+
160218 G96  0.2+  0.2+    160314 A17  0.1-  0.4-    160321 926  0.0   0.2+
160219 711  0.1+  0.7+    160314 A17  0.3-  0.5-    160321 926  0.5-  0.4-
160219 711  0.1+  0.5+    160315 H45  1.0-  0.4+    160321 926  0.4-  0.5+
160219 711  0.0   0.6+    160315 H45  0.7+  0.4-    160322 H45  0.7-  0.9-
160219 711  0.3+  0.7+    160315 H45  0.3+  0.0     160322 H45  1.0+  0.1-
160220 G96  0.5+  0.0     160315 H45  0.4+  0.2-    160322 H45  0.1-  0.9-
160220 G96  0.1+  0.2+    160315 H45  0.2-  0.0     160322 H45  0.1-  0.3-
160220 G96  0.1-  0.4+    160315 H45  0.5+  0.2+    160322 H45  0.4+  0.7-
160220 711 (1.8-  2.0-)   160315 926  0.5-  0.1+    160322 H45  0.1-  0.1-
160220 711 (2.2-  1.8-)   160315 926  0.1+  0.1-    160326 H21  0.2-  0.4+
160220 711 (1.5-  1.8-)   160315 926  0.7-  0.1+    160326 H21  0.1+  0.5+
160224 695  0.2+  0.0     160316 B67  0.3+  0.0     160326 H21  0.0   0.4+
160224 695  0.0   0.1-    160316 B67  0.4+  1.4+    160326 H21  0.0   0.3+
160224 695  0.0   0.3-    160316 B67  0.4+  0.5+    160326 H21  0.3+  0.2+
160227 H21  0.1+  0.2+    160317 H21  0.2+  0.1+    160326 H21  0.2+  0.0
160227 H21  0.0   0.6+    160317 H21  0.3+  0.1-    160326 H21  0.1+  0.1+
160227 H21  0.5+  0.2-    160317 H21  0.5+  0.1-    160326 H21  0.1+  0.2+
160228 H21  0.2+  0.0     160317 H21  0.5+  0.0     160326 H21  0.1+  0.1-
160228 H21  0.1+  0.4-    160317 H21  0.5+  0.2+    160326 H21  0.1+  0.1-
160228 H21  0.2+  0.0     160317 H45  0.2+  0.2+    160326 H21  0.1-  0.2+
160228 291  0.0   0.0     160317 H45  0.2+  0.3-    160326 926  0.2-  0.4+
160228 291  0.1+  0.0     160317 H45  0.1-  0.2-    160326 926  0.3-  0.4+
160228 291  0.1+  0.0     160317 H45  0.1+  0.0     160326 926  0.2+  0.0
160301 926  0.2+  0.0     160317 H45  0.0   0.1-    160326 204  0.1+  0.1+
160301 926  0.1-  0.1-    160317 H45  0.0   0.4-    160326 204  0.0   0.1+
160301 926  0.1+  0.1-    160318 A17  0.1-  0.0     160326 204  0.0   0.2+
160301 926  0.0   0.0     160318 A17  0.1-  0.2-    160326 204  0.0   0.1+
160301 926  0.6+  0.1+    160318 A17  0.1-  0.3-    160326 204  0.1+  0.1-
160301 926  0.0   0.6-    160318 G45  0.1-  0.2+    160327 926  0.1-  0.4+
160306 H21  0.0   0.1-    160318 G45  0.2-  0.0     160327 926  0.2-  0.2-
160306 H21  0.2-  0.1+    160318 G45  0.1-  0.2-    160327 926  0.0   0.1-
160306 H21  0.1+  0.0     160318 G45  0.3-  0.3-    160328 926  0.1-  0.1-
160306 H21  0.1+  0.1+    160318 G45  0.1+  0.1-    160328 926  0.2+  0.3-
160306 H21  0.1-  0.0     160320 926  0.3-  0.1+    160328 926  0.3-  0.2+
160310 A17  0.2-  0.4-    160320 926  0.0   0.3+    160328 C47  0.3+  0.3-
160310 A17  0.1-  0.0     160320 926  0.3-  0.0     160328 C47  0.1-  0.3-
160310 A17  0.1+  0.1-    160321 926  0.1-  0.1-    160328 C47  0.0   0.1-
160310 587  0.2+  0.4+    160321 926  0.1-  0.1+    160328 C47  0.0   0.0
160310 587  0.1-  0.3-    160321 926  0.0   0.1+    160328 C47  0.1+  0.0
160310 587  0.8-  0.1+    160321 G45  0.0   0.3+    160329 926  0.4-  0.1+
160311 926  0.1+  0.2-    160321 G45  0.0   0.1+    160329 926  0.1-  0.3-
160311 703  0.5+  0.5-    160321 G45  0.2-  0.1-    160329 926  0.1-  0.4-
160311 926  0.3-  0.6-    160321 G45  0.0   0.3+    160331 926  0.5-  0.2-
160311 703  0.0   0.3+    160321 G45  0.2+  0.0     160331 926  0.1-  0.4+
160311 703  0.4+  1.0+    160321 G45  0.1-  0.2+    160331 926  0.3+  0.0
160311 926  0.4-  0.3+    160321 G45  0.0   0.1+    160401 926  0.0   0.1+
160311 703  0.0   0.8-    160321 G45  0.0   0.2-    160401 926  0.5+  0.2-
160312 926  0.1-  0.2-    160321 G45  0.4-  0.2+    160401 926  0.1+  0.0
160312 926  0.3-  0.3-    160321 H21  0.0   0.1+    161224 T12  0.0   0.0
160312 926  0.0   0.3-    160321 H21  0.2+  0.2+    170104 T12  0.0   0.0
160313 703  0.9-  0.2-    160321 G45  0.0   0.1-    170104 T12  0.0   0.0

Ephemeris:
2016 DP                  a,e,i = 1.02, 0.48, 13                  q = 0.5347
Date    TT    R. A. (2000) Decl.     Delta      r     Elong.  Phase     V
2016 12 06    11 41 56.6 +19 17 13   1.2114  1.5098    86.2    40.6    23.1
...
2016 12 21    12 08 37.8 +19 33 34   1.0574  1.5072    95.1    40.5    22.8
...
2016 12 29    12 21 49.4 +20 06 39   0.9731  1.5002   100.1    40.2    22.6
...
2017 01 04    12 31 07.2 +20 45 36   0.9096  1.4922   104.0    39.7    22.4
2017 01 05    12 32 36.8 +20 53 25   0.8991  1.4907   104.6    39.7    22.4
2017 01 06    12 34 05.4 +21 01 38   0.8885  1.4891   105.3    39.6    22.4
...
2017 01 12    12 42 34.1 +21 59 52   0.8258  1.4782   109.3    38.9    22.2
...
2017 01 20    12 52 41.4 +23 44 31   0.7438  1.4600   114.6    37.8    21.9
...
2017 02 04    13 06 24.9 +28 44 50   0.5993  1.4150   124.6    35.0    21.3

A. U. Tomatic                (C) Copyright 2017 MPC           M.P.E.C. 2017-A21




More information about the Iaude mailing list